Zurück zum Katalog

GEESAT 3-02

AktivKommunikationLEO
NORAD 61012·PAYLOAD·🇨🇳 China

Gestartet Sep 5, 2024 von Taiyuan Satellite Launch Center

Loading…

Nächste Überflüge (nächste 24 Stunden)

TLE

AktuellSource: Space-Track

Epoche: Sep 14, 2026, 14:26 UTC

1 61012U 24159B   26257.60191532  .00001383  00000-0  18917-3 0  9994
2 61012  49.9955  28.4490 0018417  40.7214 319.5098 14.84502095110071

Verfolge GEESAT 3-02 in Echtzeit mit AllMySat

Download on the App Store